Wind_Speed
52 50 50 50 51 52 53 54 54 55 56 56 55 55 55 55 56 57 56 54 50 47 46 44 43 43 43 43 43 42 41 42 43 42 42 41 39 38 37 35 34 33
49 48 48 48 48 49 51 53 54 55 55 55 55 55 55 55 56 56 57 57 54 50 48 46 44 43 43 43 43 42 41 42 43 43 43 43 41 39 38 36 35 34
44 46 48 49 49 48 48 50 52 55 55 55 55 54 54 55 55 55 56 57 57 54 51 48 45 44 43 43 43 42 42 41 43 44 44 44 42 41 40 38 37 36
45 46 47 49 50 50 49 48 49 51 54 55 55 55 54 54 55 55 55 56 57 56 53 50 47 45 44 43 43 43 42 41 42 44 45 45 44 42 41 39 38 37
50 49 49 49 50 49 49 49 48 48 50 52 54 56 55 54 54 54 55 56 56 56 54 51 48 45 44 43 43 44 43 42 42 43 45 46 45 44 42 41 39 38
54 54 53 53 53 53 51 50 49 48 48 49 51 54 55 55 54 53 54 55 56 56 55 52 49 47 44 43 43 43 43 42 42 42 44 45 46 45 44 43 41 39
58 58 58 58 57 57 57 56 54 52 50 50 50 52 54 55 55 53 53 54 56 56 55 53 50 47 45 43 42 43 43 42 42 42 43 44 46 47 46 44 43 41
61 60 60 60 59 58 58 58 57 56 54 52 51 51 52 54 55 54 53 53 54 56 56 53 50 48 45 43 42 42 42 42 42 42 42 43 45 47 47 46 45 43
60 60 60 61 61 59 57 56 56 56 55 54 53 52 52 53 54 54 54 52 53 56 56 55 51 47 45 43 41 41 41 42 42 41 42 42 43 45 47 47 46 45
60 59 59 59 58 58 56 55 55 55 55 54 53 53 54 54 53 54 54 52 52 54 57 56 51 47 45 42 41 41 41 41 42 42 42 42 42 44 46 47 48 47
59 59 58 56 55 55 54 54 54 55 55 53 53 53 54 54 54 54 53 52 50 52 56 55 51 47 43 41 40 41 41 41 42 42 42 42 42 43 45 47 48 48
60 60 59 57 56 55 54 52 51 52 54 54 52 52 53 54 54 54 53 51 49 50 54 55 51 47 42 39 39 40 41 41 42 42 42 42 42 43 44 46 48 48
62 61 60 60 58 57 56 55 51 50 53 54 53 53 52 52 53 53 51 49 47 49 52 53 51 46 41 37 38 39 40 41 42 42 42 42 42 42 43 45 47 48
61 60 59 59 58 57 56 56 54 51 52 54 53 53 52 51 51 50 49 48 46 47 51 52 51 45 38 36 36 37 39 41 42 42 41 41 41 41 42 43 45 47
59 59 57 57 58 58 56 56 55 52 52 53 53 53 52 51 50 48 47 46 45 46 49 51 49 42 35 34 35 36 38 40 42 41 41 41 41 41 41 42 44 46
58 56 56 56 57 58 57 56 55 53 52 52 52 52 52 51 50 47 45 45 43 44 47 48 45 38 32 32 34 36 37 40 41 41 41 41 40 40 40 41 42 43
56 54 57 59 58 58 58 57 55 53 51 50 50 51 51 51 50 47 45 44 42 41 43 44 41 34 30 31 33 35 37 39 40 41 41 40 40 40 39 39 39 41
59 58 59 59 58 59 58 57 56 54 51 50 50 50 50 51 50 47 45 43 40 38 39 40 37 33 30 31 33 34 37 39 39 40 40 40 39 38 37 37 38 39
61 60 59 58 58 58 58 57 56 55 53 51 50 49 49 50 49 47 45 42 39 37 37 37 36 33 31 32 33 33 36 39 39 38 39 39 38 37 36 36 36 37
60 59 58 57 57 57 58 57 56 54 54 53 51 49 48 49 48 46 44 42 39 36 36 38 37 34 32 32 33 33 35 38 40 38 38 37 36 35 35 35 35 35
60 58 57 56 56 56 57 57 55 53 53 53 52 50 48 48 47 45 43 41 39 37 37 39 38 35 32 32 33 33 34 37 40 40 37 35 34 34 34 33 33 34
61 59 58 56 55 55 56 56 55 52 51 51 51 51 49 48 46 44 41 40 39 37 38 40 39 35 33 32 32 32 34 37 39 39 37 34 33 32 32 32 32 32
62 61 59 58 56 56 56 55 54 53 51 50 49 49 49 47 44 42 40 39 38 37 38 41 39 35 32 31 31 32 34 37 38 37 35 33 31 31 31 31 31 31
63 61 59 58 57 56 56 55 54 53 52 50 49 48 47 44 41 40 38 38 37 36 37 40 39 34 31 30 31 32 34 36 37 35 33 31 30 30 29 29 29 30
63 61 59 58 56 55 55 54 53 51 51 49 47 46 45 41 39 38 37 36 34 33 36 39 37 33 30 29 30 31 34 35 35 33 31 29 29 29 29 28 28 29
62 60 59 56 55 54 53 52 51 49 48 47 45 44 42 39 37 36 35 33 31 31 34 36 35 32 29 29 30 31 33 34 33 31 29 28 28 28 28 27 27 28
Wind_Direction
311 309 306 303 300 297 295 294 293 292 291 291 290 289 288 285 282 280 276 273 270 271 275 279 283 285 285 283 279 275 272 269 265 262 261 262 263 264 263 262 262 261
317 316 314 311 308 304 299 296 293 292 292 291 290 290 288 286 283 280 278 274 271 269 271 274 279 283 283 282 279 274 270 268 265 261 258 258 260 261 261 261 260 259
322 322 321 319 317 314 309 303 298 294 293 292 290 290 290 287 283 279 277 274 271 268 268 270 275 280 282 281 278 274 269 266 264 260 256 255 256 258 259 259 258 258
322 322 322 321 320 319 317 313 307 300 295 293 291 291 291 290 287 281 276 272 269 266 265 267 270 275 281 281 278 274 269 264 262 260 256 254 253 255 257 257 257 257
322 321 321 321 319 318 316 316 313 308 301 295 293 291 291 292 291 287 279 272 267 263 262 264 266 271 277 280 279 276 270 264 261 259 257 254 252 252 254 255 255 255
321 321 321 321 320 318 315 313 312 311 307 302 297 294 293 292 293 292 285 275 267 263 260 261 264 268 273 278 279 277 272 266 261 259 257 255 252 251 251 253 254 254
321 321 320 319 319 318 315 313 311 310 308 306 301 297 295 294 293 294 291 282 271 263 259 258 261 265 270 276 278 277 272 266 261 259 258 255 253 250 250 251 252 253
318 317 317 315 314 314 313 310 308 306 305 304 303 300 296 295 295 294 293 288 277 266 258 256 258 261 267 273 277 275 271 267 262 259 258 256 253 251 250 249 250 251
314 313 314 313 312 311 309 307 304 302 301 301 301 300 297 295 296 294 293 292 284 271 260 255 255 259 263 271 276 273 269 265 262 258 257 255 254 252 250 249 249 249
313 313 314 313 312 311 310 307 304 300 297 297 296 297 296 295 295 294 292 292 288 277 264 256 254 257 261 268 274 272 267 263 260 258 256 254 253 252 250 249 249 248
315 315 315 314 314 313 311 307 304 301 298 295 293 292 292 292 293 293 291 290 288 281 268 257 252 254 259 266 273 273 267 261 258 256 255 253 252 251 249 248 248 248
317 316 316 317 317 315 312 308 304 301 300 299 296 293 291 290 290 291 290 289 287 281 269 257 251 252 257 264 271 272 267 261 257 255 254 253 251 250 249 248 248 248
318 318 318 318 317 315 313 311 308 305 303 302 301 298 294 292 291 290 290 287 285 280 271 258 250 250 255 263 270 271 268 262 257 254 253 253 252 251 249 248 248 248
318 317 316 315 314 314 313 312 310 308 306 304 303 301 299 297 294 291 290 287 283 279 271 258 250 249 254 263 270 269 266 262 257 254 253 252 252 250 249 248 247 247
316 314 314 313 312 312 311 310 309 308 307 306 304 302 300 299 297 293 289 287 284 279 271 259 249 248 255 264 270 268 264 261 257 254 252 251 251 250 248 246 246 246
314 314 314 313 311 310 310 308 307 307 307 306 304 302 301 300 298 293 289 287 284 279 271 259 249 249 256 264 268 267 263 259 256 253 251 250 250 249 247 246 245 246
315 314 314 313 311 309 308 307 306 305 305 305 304 302 301 300 298 294 289 286 284 280 271 257 248 250 257 263 265 265 263 258 254 252 250 249 249 249 247 246 245 245
315 314 313 311 310 308 307 306 306 305 304 304 304 303 301 299 298 295 290 286 283 278 268 254 248 252 258 261 263 263 262 259 253 250 250 250 249 249 248 246 245 244
314 313 312 311 309 308 307 306 306 305 304 303 303 302 301 299 297 294 289 284 281 275 262 250 247 252 256 259 262 261 260 259 254 249 248 250 250 249 248 246 244 243
314 314 313 311 310 308 306 306 305 304 303 302 302 302 301 299 296 292 287 282 278 270 257 246 245 250 254 257 260 260 258 257 255 250 246 248 250 249 247 245 244 243
316 315 314 312 310 307 305 305 304 302 301 301 302 303 302 300 296 291 285 279 275 266 253 245 245 248 251 254 257 258 255 253 253 252 248 246 248 248 247 245 243 242
317 316 315 312 310 307 305 304 304 303 301 300 301 302 302 301 297 290 284 278 272 263 251 245 245 247 249 252 254 255 253 250 250 251 250 248 246 246 246 246 243 241
318 318 316 313 311 308 306 305 305 304 303 301 301 302 303 301 296 289 282 275 269 261 250 245 245 246 248 250 252 252 250 249 249 250 250 250 248 245 244 243 243 241
319 318 316 313 311 309 307 306 305 304 303 302 302 302 303 300 294 288 281 273 268 261 249 244 245 245 246 248 250 249 248 248 248 249 249 248 247 246 243 241 240 239
319 318 316 313 310 308 307 306 305 304 302 301 302 303 302 297 292 287 280 273 268 259 249 245 245 244 243 245 246 246 246 247 247 247 248 247 245 245 243 240 237 234
319 318 315 313 310 308 306 305 305 303 302 301 302 302 300 295 290 286 280 273 265 256 247 244 243 242 240 241 243 243 244 246 246 246 247 246 244 243 242 239 235 230
Height
2955 2951 2948 2945 2942 2939 2935 2932 2929 2926 2922 2919 2916 2914 2912 2910 2909 2907 2906 2904 2902 2901 2900 2900 2899 2898 2898 2897 2896 2895 2895 2894 2895 2895 2896 2896 2897 2897 2898 2898 2898 2898
2947 2944 2940 2938 2935 2932 2928 2924 2921 2919 2916 2913 2909 2907 2904 2902 2901 2900 2899 2897 2895 2894 2893 2892 2892 2891 2891 2890 2889 2889 2888 2888 2888 2889 2890 2891 2892 2892 2893 2893 2894 2894
2942 2938 2934 2930 2927 2925 2922 2918 2915 2911 2908 2906 2903 2900 2897 2894 2892 2891 2890 2889 2888 2886 2885 2885 2885 2884 2883 2883 2883 2882 2882 2881 2882 2882 2883 2884 2886 2887 2887 2888 2888 2889
2936 2933 2930 2925 2921 2918 2915 2912 2909 2905 2901 2898 2896 2893 2890 2887 2885 2882 2881 2880 2879 2878 2877 2877 2877 2877 2877 2876 2876 2875 2875 2875 2875 2876 2876 2878 2879 2881 2882 2883 2883 2884
2931 2927 2924 2921 2917 2913 2909 2906 2903 2899 2895 2892 2889 2886 2883 2881 2878 2875 2873 2871 2870 2869 2869 2869 2869 2869 2869 2869 2869 2868 2868 2868 2869 2869 2870 2871 2873 2875 2876 2877 2878 2879
2925 2921 2918 2914 2910 2907 2903 2900 2896 2893 2889 2885 2882 2879 2876 2873 2870 2868 2865 2863 2862 2861 2860 2860 2861 2861 2861 2861 2861 2861 2861 2861 2862 2863 2863 2864 2866 2868 2869 2870 2872 2873
2919 2915 2911 2908 2904 2900 2895 2892 2889 2885 2882 2878 2875 2872 2869 2866 2863 2860 2858 2855 2854 2852 2851 2852 2852 2853 2854 2854 2853 2854 2854 2855 2855 2856 2857 2858 2859 2861 2862 2864 2866 2867
2915 2911 2906 2902 2899 2895 2890 2886 2882 2878 2875 2871 2868 2865 2861 2858 2855 2853 2850 2848 2846 2844 2843 2843 2844 2845 2846 2846 2846 2846 2846 2847 2848 2849 2850 2852 2853 2854 2856 2858 2859 2861
2910 2906 2902 2897 2892 2889 2885 2881 2876 2872 2868 2865 2861 2857 2854 2851 2848 2845 2843 2840 2838 2837 2836 2835 2835 2836 2838 2839 2839 2839 2839 2840 2841 2842 2843 2844 2846 2847 2849 2850 2852 2854
2905 2900 2896 2891 2886 2881 2877 2873 2869 2865 2861 2858 2854 2850 2847 2843 2840 2838 2835 2833 2831 2829 2828 2827 2828 2829 2830 2831 2831 2831 2832 2832 2833 2835 2836 2837 2839 2841 2842 2843 2845 2847
2898 2894 2889 2885 2880 2875 2870 2866 2862 2858 2854 2851 2847 2843 2840 2836 2833 2830 2827 2825 2823 2821 2820 2819 2820 2821 2822 2823 2824 2824 2825 2825 2826 2827 2828 2830 2832 2834 2835 2836 2838 2840
2891 2886 2881 2876 2872 2867 2863 2859 2856 2851 2846 2843 2840 2836 2832 2829 2825 2822 2819 2817 2815 2813 2812 2811 2812 2814 2815 2816 2817 2817 2818 2818 2819 2820 2821 2823 2825 2827 2828 2829 2831 2833
2882 2877 2872 2867 2863 2859 2854 2850 2847 2844 2839 2835 2832 2828 2824 2821 2817 2814 2812 2809 2808 2805 2804 2804 2805 2807 2808 2809 2810 2810 2811 2812 2812 2814 2815 2816 2818 2820 2822 2823 2824 2827
2874 2869 2865 2860 2856 2852 2847 2842 2838 2835 2831 2827 2824 2820 2817 2813 2809 2807 2804 2802 2800 2798 2797 2796 2798 2800 2802 2803 2803 2804 2804 2805 2805 2807 2809 2810 2811 2813 2815 2817 2818 2820
2867 2862 2858 2854 2849 2844 2840 2836 2831 2827 2824 2820 2816 2812 2809 2805 2802 2799 2797 2794 2792 2791 2789 2789 2791 2794 2796 2797 2797 2797 2798 2798 2799 2800 2802 2803 2805 2806 2808 2810 2811 2813
2859 2855 2851 2847 2842 2836 2832 2828 2824 2820 2816 2812 2808 2805 2801 2798 2795 2792 2790 2787 2785 2784 2783 2783 2785 2788 2789 2790 2791 2791 2791 2791 2792 2794 2796 2797 2798 2800 2802 2803 2805 2807
2852 2847 2843 2839 2834 2829 2824 2820 2816 2812 2808 2805 2801 2797 2794 2791 2788 2785 2783 2781 2778 2777 2777 2778 2780 2782 2783 2784 2784 2784 2785 2785 2786 2788 2789 2791 2792 2794 2796 2798 2800 2802
2844 2840 2835 2831 2826 2821 2816 2812 2807 2803 2800 2797 2793 2790 2786 2783 2780 2778 2776 2774 2772 2771 2771 2772 2775 2776 2777 2778 2778 2778 2778 2778 2780 2782 2783 2784 2786 2788 2791 2793 2794 2796
2837 2832 2828 2823 2818 2813 2808 2804 2799 2795 2792 2789 2786 2783 2779 2776 2773 2771 2769 2767 2766 2765 2765 2767 2769 2770 2771 2772 2773 2773 2773 2772 2773 2777 2778 2779 2781 2783 2785 2787 2789 2790
2829 2824 2819 2814 2810 2805 2800 2795 2791 2786 2782 2780 2777 2775 2772 2769 2766 2764 2762 2761 2759 2759 2759 2761 2762 2763 2765 2766 2766 2767 2768 2767 2767 2770 2773 2774 2776 2778 2780 2782 2783 2785
2820 2815 2811 2806 2801 2796 2791 2787 2783 2779 2775 2771 2768 2766 2764 2761 2758 2756 2755 2754 2753 2752 2753 2754 2756 2757 2759 2760 2760 2761 2763 2762 2761 2763 2766 2769 2771 2773 2775 2776 2778 2780
2812 2806 2802 2797 2793 2788 2783 2778 2774 2771 2768 2764 2761 2758 2755 2753 2751 2749 2748 2747 2746 2746 2746 2748 2750 2751 2752 2754 2755 2756 2757 2757 2756 2757 2761 2764 2766 2768 2770 2771 2773 2775
2803 2798 2792 2787 2783 2778 2774 2769 2766 2762 2759 2756 2753 2750 2747 2745 2742 2741 2740 2739 2738 2739 2740 2742 2744 2745 2747 2748 2749 2750 2751 2750 2751 2753 2756 2759 2761 2764 2765 2767 2768 2770
2794 2789 2784 2779 2774 2769 2765 2761 2757 2753 2750 2748 2745 2742 2739 2737 2735 2733 2732 2732 2731 2733 2735 2736 2738 2740 2741 2742 2743 2744 2745 2745 2746 2749 2752 2755 2757 2758 2760 2762 2764 2766
2787 2781 2776 2770 2765 2761 2757 2753 2749 2746 2742 2740 2737 2735 2732 2729 2727 2726 2725 2725 2726 2727 2729 2731 2733 2734 2736 2737 2737 2738 2739 2740 2742 2745 2748 2750 2752 2754 2755 2758 2760 2762
2780 2774 2768 2763 2757 2753 2749 2745 2742 2739 2735 2732 2730 2728 2725 2722 2721 2720 2719 2719 2720 2722 2724 2726 2727 2729 2731 2731 2732 2733 2734 2736 2738 2741 2744 2746 2748 2749 2751 2753 2755 2757